Satellite: HUBBLE
Catalog number: 20580
Epoch time:      09357.30213847
Element set:     492
Inclination:      028.4717 deg
RA of node:       307.9826 deg
Eccentricity:    0.0003481
Arg of perigee:   131.1307 deg
Mean anomaly:     228.9628 deg
Mean motion:   15.00869724 rev/day
Decay rate:       4.07e-06 rev/day^2
Epoch rev:           87829
Checksum:              311

Satellite: ISS
Catalog number: 25544
Epoch time:      09358.92155093
Element set:     238
Inclination:      051.6442 deg
RA of node:       046.3508 deg
Eccentricity:    0.0008002
Arg of perigee:   111.8756 deg
Mean anomaly:     254.1167 deg
Mean motion:   15.76927485 rev/day
Decay rate:     1.5188e-04 rev/day^2
Epoch rev:           63601
Checksum:              305

Satellite: CO-58
Catalog number: 28895
Epoch time:      09357.65514618
Element set:    0471
Inclination:      098.0357 deg
RA of node:       242.6961 deg
Eccentricity:    0.0019050
Arg of perigee:   114.6048 deg
Mean anomaly:     245.7146 deg
Mean motion:   14.59827976 rev/day
Decay rate:       2.23e-06 rev/day^2
Epoch rev:           22137
Checksum:              337

Satellite: FALCON
Catalog number: 30776
Epoch time:      09357.44415891
Element set:    0730
Inclination:      035.4341 deg
RA of node:       031.0361 deg
Eccentricity:    0.0000609
Arg of perigee:   060.9744 deg
Mean anomaly:     299.1045 deg
Mean motion:   15.03402717 rev/day
Decay rate:       5.34e-06 rev/day^2
Epoch rev:           15359
Checksum:              276

Satellite: MAST
Catalog number: 31126
Epoch time:      09357.68731240
Element set:     761
Inclination:      097.9628 deg
RA of node:       043.5485 deg
Eccentricity:    0.0095437
Arg of perigee:   052.1420 deg
Mean anomaly:     308.8348 deg
Mean motion:   14.53540593 rev/day
Decay rate:        2.9e-07 rev/day^2
Epoch rev:           14256
Checksum:              306

Satellite: CAPE1
Catalog number: 31130
Epoch time:      09357.63698843
Element set:    0774
Inclination:      097.9622 deg
RA of node:       041.2690 deg
Eccentricity:    0.0103637
Arg of perigee:   058.7348 deg
Mean anomaly:     302.3928 deg
Mean motion:   14.52117944 rev/day
Decay rate:       1.32e-06 rev/day^2
Epoch rev:           14218
Checksum:              306

Satellite: COMPASS
Catalog number: 32787
Epoch time:      09358.20719130
Element set:     551
Inclination:      097.9172 deg
RA of node:       060.1867 deg
Eccentricity:    0.0016617
Arg of perigee:   132.2283 deg
Mean anomaly:     228.0417 deg
Mean motion:   14.81721367 rev/day
Decay rate:       4.35e-06 rev/day^2
Epoch rev:            8958
Checksum:              306

Satellite: AAUSAT2
Catalog number: 32788
Epoch time:      09357.68626328
Element set:     543
Inclination:      097.9195 deg
RA of node:       059.7634 deg
Eccentricity:    0.0016268
Arg of perigee:   135.1675 deg
Mean anomaly:     225.0876 deg
Mean motion:   14.81853405 rev/day
Decay rate:       7.72e-06 rev/day^2
Epoch rev:            8951
Checksum:              349

Satellite: DO-64
Catalog number: 32789
Epoch time:      09357.63863142
Element set:    0560
Inclination:      097.9235 deg
RA of node:       060.0161 deg
Eccentricity:    0.0016334
Arg of perigee:   133.7669 deg
Mean anomaly:     226.4869 deg
Mean motion:   14.81899981 rev/day
Decay rate:       7.06e-06 rev/day^2
Epoch rev:           08950
Checksum:              348

Satellite: CO-66
Catalog number: 32791
Epoch time:      09358.20534545
Element set:     540
Inclination:      097.9183 deg
RA of node:       060.2144 deg
Eccentricity:    0.0016657
Arg of perigee:   129.8658 deg
Mean anomaly:     230.4089 deg
Mean motion:   14.81532405 rev/day
Decay rate:       2.21e-06 rev/day^2
Epoch rev:            8954
Checksum:              314

Satellite: RS-30
Catalog number: 32953
Epoch time:      09357.82324765
Element set:    0483
Inclination:      082.5015 deg
RA of node:       138.7208 deg
Eccentricity:    0.0019625
Arg of perigee:   124.4655 deg
Mean anomaly:     235.8280 deg
Mean motion:   12.43003224 rev/day
Decay rate:        1.0e-07 rev/day^2
Epoch rev:           07195
Checksum:              284

Satellite: TACSAT-3
Catalog number: 35001
Epoch time:      09358.95719122
Element set:     175
Inclination:      040.4545 deg
RA of node:       179.1366 deg
Eccentricity:    0.0021736
Arg of perigee:   142.6580 deg
Mean anomaly:     217.5750 deg
Mean motion:   15.39841612 rev/day
Decay rate:      3.173e-05 rev/day^2
Epoch rev:            3375
Checksum:              294

Satellite: PHARMSAT
Catalog number: 35002
Epoch time:      09357.94325595
Element set:    0168
Inclination:      040.4666 deg
RA of node:       183.9795 deg
Eccentricity:    0.0024787
Arg of perigee:   140.0282 deg
Mean anomaly:     220.2363 deg
Mean motion:   15.40532422 rev/day
Decay rate:      2.962e-05 rev/day^2
Epoch rev:           03360
Checksum:              289

Satellite: HAWKSAT1
Catalog number: 35003
Epoch time:      09357.90331526
Element set:    0174
Inclination:      040.4609 deg
RA of node:       182.6036 deg
Eccentricity:    0.0023783
Arg of perigee:   145.0377 deg
Mean anomaly:     215.2006 deg
Mean motion:   15.41811125 rev/day
Decay rate:      6.144e-05 rev/day^2
Epoch rev:           03362
Checksum:              258

